STARLINK-32592, 62035

Orbit data source: Space-Track

STARLINK-32592, 62035 is a payload satellite owned by SpaceX/Seattle (US) in LEO that was launched on Thu, 21 Nov 2024 UTC via an FALCON 9 launch vehicle from the Air Force Eastern Test Range (AFETR). Payloads include a variety of satellites, spacecraft, and rockets equipped with specific instruments for various scientific and technological missions. These include communications satellites like Starlink; space stations such as the ISS; scientific satellites like the Hubble; Earth observation satellites from companies like Planet Labs, Umbra, and HawkEye 360; GPS; miniature CubeSats for education and research; and military/defense satellites.

Loading next visibility...
STARLINK-32592 details
Identifier
62035, 2024-216D
Orbit
LEO
Last TLE update9 hours ago
Origin
Flag of USSpaceX/Seattle (US)
ManufacturerSpaceX/Seattle
MissionOperational spacecraft
Bus & MotorSTARLINK V2M, Unknown motor
Mass730 kg wet, ~700 kg dry
Launch date (UTC)
2024-11-21 (3 weeks ago)
Launch vehicle
FALCON 9
Launch site
Air Force Eastern Test Range (AFETR)
Object type
Payload
Rocket body
Debris
Shape & HBRUnknown
Radar Cross SectionLarge (>1 m²)

Expand to show TLE details & history

TLE from 9 hours ago
0 STARLINK-32592
1 62035U 24216D   24348.50002315 -.00005593  00000-0 -89553-4 0  9996
2 62035  42.9996 307.4120 0001175 277.5545 178.4421 15.50587401  4572
Epoch: 2024-12-13T12:00Z
Definitive object data (Epoch: 2024-12-13T12:00:02Z)
Latitude42.86686°
Longitude142.92107°
Altitude418.878 km
Speed7.665 km/s
True Right ascension03h 02m 22s
True Declination42° 41' 13"
Sunlit
Object was in full shadow at TLE epoch
Visualization TLE readout
Latitude42.17152°
Longitude147.45662°
Altitude418.738 km
Speed7.665 km/s
Apparent Right ascension05h 32m 49s
Apparent Declination3° 14' 58"
Sunlit
Object is in full shadow
Visualization observer readout
Local Sidereal Time19:49:35
Azimuth44.38° NE
Elevation-36.656°
Doppler factor1
Orbital elements
Apogee altitude417.773 km
Perigee altitude416.176 km
Semi-major axis6,795.112 km
Eccentricity0.0001175
Inclination42.9996°
RAAN307.412°
Arg. of periapsis277.5545°
True anomaly178.44247°
Mean anomaly178.4421°
Eccentric anomaly178.44228°
Mean motion3.87479 °/min
BSTAR-0.000089553
Orbital period92.91 mins
Loading maneuver chart data...
Loading historical data...
Loading historical data...
Loading historical data...
Loading historical data...
Loading historical data...
Loading historical data...
Loading historical data...

STARLINK-32592 Visibility forecast

Observer location: undefined°, undefined

Span
Click to sort rows by Start time (UTC) header in descending order
Start Az.
Max El. time (UTC)
Max El. Az.
Max El.
End time (UTC)
End Az.
5 mins2024-12-14 01:45:52.859Z244.129° WSW2024-12-14 01:47:52.859Z108.543° ESE43.907°2024-12-14 01:50:52.859Z73.148° E
4 mins2024-12-14 03:23:52.859Z298.342° NW2024-12-14 03:24:52.859Z334.074° NNW35.523°2024-12-14 03:27:52.859Z70.188° E
5 mins2024-12-14 05:00:52.859Z293.63° NW2024-12-14 05:02:52.859Z15.55° NNE43.361°2024-12-14 05:05:52.859Z99.031° ESE
4 mins2024-12-14 06:38:52.859Z249.187° W2024-12-14 06:39:52.859Z219.737° SW25.457°2024-12-14 06:42:52.859Z150.517° SSE
|